[[{"header":{"parameterUnit":"m.s-1","parameterCategory":1,"la1":30.2991,"la2":30.254,"lo1":-89.0895,"lo2":-89.0444,"dy":0.0017,"dx":0.0017,"nx":28,"ny":28,"refTime":"2025-09-16T21:00:00:Z","depth":0,"parameterNumber":2,"parameterNumberName":"U-component_of_WINDS"},"data":[0,0,0,0,0,0,0,0,0,0,0,0,0,0,0,0,0,0,0,0,0,0,0,0,0,0,0,0,0,0,0,0,0,0,0,0,0,0,0,0,0,0,0,0,0,0,0,0,0,0,0,0,0,0,0,0,0,0,0.6356,0.6356,0,0.6374,0.6374,0.6375,0.6395,0.6395,0.6395,0.6396,0.6413,0.6413,0.6413,0,0,0,0,0,0,0,0,0,0,0,0,0,0.6337,0.6337,0.6356,0.6356,0.6357,0.6374,0.6374,0.6375,0.6395,0.6395,0.6395,0.6396,0.6413,0.6413,0.6413,0,0,0,0,0,0,0,0,0,0,0,0,0,0.6349,0.6337,0.6356,0.6369,0.637,0.6374,0.6374,0.6375,0.6395,0.6395,0.6396,0.6396,0.6413,0.6413,0.6413,0.6406,0,0,0.6414,0.6414,0,0,0,0,0,0,0,0,0.6348,0.635,0.6367,0.6368,0.6369,0.6383,0.6374,0.6385,0.6395,0.6385,0.6396,0.6396,0.6402,0.6403,0.6406,0.6407,0.6407,0.6414,0.6414,0.6414,0.6414,0,0,0,0,0,0,0,0.6348,0.6349,0.6363,0.6367,0.6368,0.6373,0.6375,0.6376,0.6391,0.6386,0.6388,0.639,0.6403,0.6406,0.6406,0.6408,0.6414,0.6414,0.6414,0.6415,0.6402,0.6401,0,0,0,0,0,0,0.6345,0.6348,0.6363,0.6364,0.636,0.6373,0.6375,0.6378,0.6391,0.6394,0.6389,0.639,0.6405,0.6406,0.6407,0.6398,0.6414,0.6415,0.6415,0.6402,0.6402,0.6401,0,0,0,0,0,0,0.6345,0.6346,0.6362,0.6356,0.6359,0.6373,0.6375,0.6378,0.6381,0.6393,0.6396,0.6389,0.6405,0.6407,0.6406,0.6399,0.6415,0.6415,0.6403,0.6402,0.6402,0.6381,0,0,0,0,0,0,0.6344,0.6346,0.6344,0.6356,0.6359,0.6361,0.6375,0.6378,0.6381,0.6383,0.6394,0.6396,0.6406,0.6405,0.6406,0.64,0.6415,0.6404,0.6403,0.6402,0.6382,0.638,0.6378,0,0,0,0,0,0.6343,0.6337,0.6343,0.6345,0.6357,0.636,0.6362,0.6374,0.6381,0.6378,0.6386,0.6396,0.64,0.6405,0.6406,0.64,0.6404,0.6403,0.6402,0.6384,0.638,0.6378,0,0,0,0,0,0,0.6323,0.6339,0.6346,0.6344,0.6351,0.6364,0.6361,0.637,0.6374,0.6376,0.639,0.6392,0.6389,0.6395,0.64,0.6393,0.6403,0.6402,0.6389,0.6386,0.6384,0.6382,0.6415,0,0,0,0,0,0.6319,0.6321,0.6335,0.6331,0.6334,0.6347,0.6349,0.6358,0.6365,0.6367,0.6376,0.6382,0.6384,0.6386,0.6389,0.6384,0.6386,0.638,0.6377,0.6375,0.6374,0.637,0.6367,0.6398,0.6398,0.6398,0,0,0.6309,0.6318,0.6319,0.6328,0.6334,0.6335,0.6349,0.635,0.6351,0.6367,0.6367,0.6373,0.6381,0.6377,0.6376,0.6382,0.6366,0.6374,0.6372,0.6372,0.6369,0.6366,0.6363,0.6397,0.6397,0.6397,0,0,0.6292,0.63,0.6297,0.6303,0.6312,0.632,0.632,0.6331,0.6336,0.6336,0.6348,0.6349,0.6353,0.6358,0.6361,0.6345,0.6353,0.6346,0.6332,0.6329,0.6326,0.6324,0.6317,0.6315,0.6344,0.6344,0.6344,0,0.6279,0.6282,0.6295,0.6295,0.6298,0.6313,0.631,0.6315,0.6324,0.6326,0.6332,0.6338,0.6344,0.6341,0.6337,0.634,0.6338,0.6344,0.6326,0.6324,0.6322,0.6315,0.6313,0.6343,0.6343,0.6344,0.6344,0,0.6264,0.6266,0.6263,0.6272,0.6274,0.6273,0.6285,0.6286,0.6294,0.6302,0.6301,0.6309,0.6313,0.6314,0.6322,0.6312,0.6315,0.6323,0.6334,0.6318,0.6312,0.6309,0.6342,0.6342,0.6342,0.6343,0,0,0.6235,0.6251,0.6249,0.6253,0.6264,0.6265,0.6264,0.6268,0.6269,0.6275,0.6273,0.6276,0.6284,0.6287,0.6296,0.6293,0.6278,0.6301,0.6302,0.6296,0.6266,0.6258,0.6255,0.6284,0.6284,0.6283,0.6265,0,0.6219,0.6218,0.6229,0.6225,0.6226,0.624,0.6239,0.6245,0.6252,0.6253,0.6261,0.6262,0.6273,0.6275,0.6273,0.628,0.6272,0.6282,0.6282,0.6281,0.6278,0.6252,0.6245,0.6227,0.6263,0.6262,0.6262,0,0.62,0.6204,0.62,0.621,0.6211,0.621,0.6214,0.6216,0.6223,0.6228,0.6231,0.6241,0.624,0.6251,0.6248,0.6255,0.6256,0.6259,0.6259,0.6258,0.627,0.625,0.6222,0.6218,0.6259,0.6259,0.6259,0,0.6177,0.6182,0.618,0.6183,0.6195,0.6194,0.6199,0.6206,0.6208,0.6212,0.6213,0.6217,0.6218,0.6221,0.6231,0.6238,0.6227,0.6239,0.623,0.623,0.6226,0.6226,0.6196,0.6229,0.6229,0.6229,0.6229,0,0.6157,0.6153,0.617,0.6168,0.6164,0.6178,0.6173,0.6179,0.6186,0.6185,0.6198,0.6197,0.6211,0.6211,0.6219,0.6215,0.6216,0.622,0.6222,0.6218,0.6217,0.6217,0.6218,0.6228,0.6228,0.6228,0.6228,0,0.6131,0.6142,0.614,0.6151,0.6154,0.6151,0.616,0.6159,0.6167,0.6165,0.6166,0.6178,0.6179,0.6189,0.6193,0.6198,0.619,0.6195,0.6188,0.6189,0.6179,0.6179,0.6147,0.6143,0.6179,0.6179,0.6179,0,0.6117,0.6114,0.6125,0.6126,0.613,0.6131,0.6133,0.6145,0.6147,0.6154,0.6151,0.6153,0.6155,0.6156,0.6165,0.6167,0.6171,0.616,0.6171,0.6167,0.6169,0.6169,0.6168,0.6157,0.6156,0.6156,0.6156,0,0.609,0.6095,0.6098,0.6101,0.6103,0.6107,0.6111,0.6111,0.6125,0.6125,0.6126,0.6128,0.6131,0.6133,0.6136,0.6141,0.615,0.6152,0.615,0.6145,0.614,0.6141,0.618,0.6153,0.6153,0.6153,0.6153,0.6153,0.6068,0.6066,0.6073,0.6075,0.608,0.6083,0.6082,0.609,0.6091,0.6095,0.6102,0.6102,0.6108,0.6114,0.6117,0.6117,0.6123,0.612,0.6119,0.6117,0.6115,0.6142,0.6118,0.6118,0.6118,0.6118,0.6118,0,0.6041,0.6046,0.6048,0.6053,0.6054,0.6064,0.6069,0.6069,0.6069,0.6074,0.6076,0.6076,0.6078,0.6086,0.6088,0.6086,0.609,0.6086,0.6085,0.6086,0.611,0.6111,0.6082,0.6082,0.6082,0.6082,0.6082,0.6082,0.6027,0.6024,0.603,0.6028,0.6034,0.6033,0.6035,0.6038,0.6042,0.6043,0.6044,0.6049,0.6055,0.6058,0.6059,0.6062,0.6061,0.6055,0.6059,0.6081,0.6084,0.6088,0.6089,0.6055,0.6055,0.6034,0.6034,0.6034]},{"header":{"parameterUnit":"m.s-1","parameterCategory":1,"la1":30.2991,"la2":30.254,"lo1":-89.0895,"lo2":-89.0444,"dy":0.0017,"dx":0.0017,"nx":28,"ny":28,"refTime":"2025-09-16T21:00:00:Z","depth":0,"parameterNumber":3,"parameterNumberName":"V-component_of_WINDS"},"data":[0,0,0,0,0,0,0,0,0,0,0,0,0,0,0,0,0,0,0,0,0,0,0,0,0,0,0,0,0,0,0,0,0,0,0,0,0,0,0,0,0,0,0,0,0,0,0,0,0,0,0,0,0,0,0,0,0,0,2.3141,2.3141,0,2.317,2.317,2.3171,2.3146,2.3145,2.3144,2.3143,2.3172,2.3174,2.3175,0,0,0,0,0,0,0,0,0,0,0,0,0,2.3061,2.3062,2.3141,2.3141,2.3141,2.317,2.317,2.3171,2.3147,2.3145,2.3144,2.3143,2.3172,2.3174,2.3176,0,0,0,0,0,0,0,0,0,0,0,0,0,2.3093,2.3063,2.3141,2.3133,2.3132,2.317,2.3171,2.3171,2.3147,2.3145,2.3144,2.3142,2.3171,2.3173,2.3176,2.3222,0,0,2.3184,2.3185,0,0,0,0,0,0,0,0,2.3091,2.3096,2.3134,2.3133,2.3133,2.3153,2.3153,2.3188,2.3147,2.3141,2.3143,2.3142,2.3167,2.317,2.3179,2.3224,2.3225,2.3184,2.3186,2.3187,2.3187,0,0,0,0,0,0,0,2.3089,2.3095,2.3152,2.3134,2.3134,2.3127,2.313,2.3159,2.3162,2.3142,2.314,2.3144,2.3166,2.3176,2.3179,2.3225,2.3184,2.3186,2.3188,2.3189,2.3307,2.3309,0,0,0,0,0,0,2.3088,2.3093,2.3151,2.3153,2.3108,2.313,2.3133,2.3148,2.3162,2.3163,2.3145,2.3143,2.3173,2.3176,2.318,2.3233,2.3187,2.3189,2.3191,2.3306,2.3308,2.331,0,0,0,0,0,0,2.3086,2.3093,2.315,2.3123,2.3129,2.3133,2.315,2.315,2.3159,2.3165,2.3165,2.3155,2.3171,2.3176,2.3212,2.3234,2.319,2.3193,2.3304,2.3306,2.3309,2.3341,0,0,0,0,0,0,2.3084,2.3093,2.3111,2.3123,2.3131,2.3182,2.3151,2.3151,2.3164,2.3161,2.3174,2.3174,2.3171,2.3208,2.3214,2.3237,2.3195,2.3302,2.3305,2.3308,2.3338,2.3345,2.335,0,0,0,0,0,2.3081,2.312,2.3113,2.312,2.3154,2.3184,2.3188,2.3183,2.3166,2.3184,2.3187,2.3174,2.3231,2.3212,2.3219,2.3242,2.33,2.3304,2.3308,2.3336,2.3343,2.335,0,0,0,0,0,0,2.3111,2.3121,2.3113,2.3157,2.3169,2.3179,2.3202,2.3192,2.321,2.3206,2.3199,2.3202,2.3239,2.3244,2.3223,2.3287,2.3263,2.3268,2.3282,2.3289,2.3295,2.3292,2.3197,0,0,0,0,0,2.3122,2.3146,2.3154,2.3191,2.3198,2.3199,2.3212,2.3207,2.3219,2.3225,2.323,2.3243,2.3263,2.3277,2.3296,2.3339,2.3341,2.3359,2.3365,2.337,2.3374,2.3395,2.3402,2.3321,2.3321,2.3321,0,0,2.3146,2.3155,2.317,2.3197,2.3206,2.323,2.3204,2.323,2.3247,2.3228,2.3261,2.3266,2.3279,2.3318,2.3336,2.3324,2.3396,2.3374,2.3378,2.3379,2.3399,2.3407,2.3413,2.3324,2.3323,2.3323,0,0,2.3201,2.3211,2.3242,2.3252,2.3266,2.3266,2.3274,2.3285,2.3287,2.332,2.3306,2.3326,2.3362,2.3371,2.338,2.3437,2.3425,2.3444,2.3474,2.3495,2.3501,2.3506,2.3525,2.3531,2.3448,2.3448,2.3448,0,2.3229,2.3264,2.326,2.3286,2.3298,2.3282,2.3313,2.3322,2.3342,2.3349,2.3336,2.3379,2.3387,2.3427,2.3441,2.345,2.3456,2.3442,2.3501,2.3506,2.3511,2.3528,2.3535,2.345,2.345,2.345,2.345,0,2.3297,2.3321,2.3345,2.3363,2.3378,2.3406,2.3405,2.3419,2.3413,2.3414,2.3447,2.3456,2.3476,2.3485,2.348,2.3523,2.3515,2.3502,2.3477,2.3521,2.3537,2.3543,2.3453,2.3452,2.3452,2.3451,0,0,2.3371,2.3386,2.3394,2.3402,2.3416,2.3434,2.3461,2.348,2.3492,2.3506,2.3527,2.3557,2.3544,2.3555,2.355,2.3568,2.361,2.3552,2.3552,2.3561,2.3656,2.3665,2.3673,2.3603,2.3604,2.3605,2.3654,0,2.3425,2.3473,2.3468,2.3513,2.3534,2.3519,2.3542,2.3552,2.3554,2.3572,2.3573,2.3594,2.3576,2.3582,2.3599,2.3601,2.3629,2.3598,2.3621,2.3622,2.3616,2.3681,2.3691,2.3737,2.3661,2.3662,2.3663,0,2.3495,2.351,2.3556,2.3565,2.3574,2.3595,2.3611,2.3629,2.3639,2.3639,2.365,2.3642,2.3668,2.3644,2.3678,2.3657,2.3666,2.3668,2.367,2.3671,2.3643,2.3682,2.3752,2.3758,2.3673,2.3672,2.3671,0,2.3541,2.3574,2.3605,2.3612,2.3624,2.3638,2.3644,2.3653,2.3664,2.3678,2.3685,2.3702,2.3711,2.3724,2.372,2.3703,2.3754,2.3731,2.3753,2.3753,2.3763,2.3763,2.3834,2.3773,2.3773,2.3773,2.3772,0,2.3601,2.3629,2.3626,2.3645,2.3676,2.367,2.3701,2.3704,2.3712,2.373,2.3719,2.3737,2.3731,2.3748,2.3745,2.3773,2.3778,2.3777,2.3775,2.3777,2.3777,2.3781,2.3777,2.3774,2.3774,2.3774,2.3773,0,2.3658,2.3657,2.369,2.3698,2.37,2.3722,2.3728,2.3745,2.3746,2.3769,2.3774,2.3775,2.3794,2.3791,2.3813,2.3811,2.3845,2.384,2.3841,2.3839,2.3861,2.3858,2.3937,2.3946,2.388,2.3881,2.3882,0,2.3695,2.3717,2.3726,2.3738,2.3744,2.3763,2.3774,2.3769,2.378,2.3793,2.3808,2.3826,2.384,2.3871,2.3873,2.3889,2.3884,2.391,2.3886,2.3886,2.3881,2.3879,2.3881,2.3914,2.3915,2.3916,2.3916,0,2.3761,2.3759,2.3775,2.3791,2.3804,2.3817,2.3828,2.3838,2.3833,2.3847,2.3866,2.3877,2.3898,2.3916,2.393,2.3935,2.3924,2.3924,2.393,2.3931,2.3929,2.3928,2.3852,2.3922,2.3921,2.3921,2.3921,2.3921,2.3808,2.3825,2.3834,2.3852,2.3859,2.3869,2.3885,2.3887,2.3903,2.392,2.3916,2.3937,2.3945,2.3964,2.397,2.3986,2.3976,2.3985,2.3987,2.3988,2.399,2.3928,2.3989,2.3989,2.3988,2.3988,2.3988,0,2.3871,2.3875,2.3892,2.3907,2.3921,2.391,2.3921,2.3933,2.3952,2.3961,2.3974,2.3995,2.4012,2.4014,2.403,2.4042,2.4037,2.4046,2.4044,2.4044,2.3999,2.3991,2.4049,2.4049,2.4049,2.4049,2.4049,2.4049,2.3905,2.3932,2.3931,2.3962,2.3966,2.3987,2.3994,2.4002,2.4009,2.4033,2.4046,2.4048,2.4054,2.4069,2.4083,2.4084,2.4089,2.4099,2.4097,2.4054,2.4048,2.4042,2.4035,2.4101,2.4101,2.4141,2.4141,2.4142]}]]